This demonstration page uses our WeatherBlox Daily Observations layout. Learn more.

Left ArrowRight Arrow

Hourly Observations for February 12, 2018

Temp ( °F °C ) Dew Point ( °F °C ) Humidity (%) Winds ( mph kmh ) Pressure ( in mb ) Visibility ( mi km ) Precip ( " mm )
12:53 am 00:53 Clear 3 -16.1 -1 -18.3 83 83 Calm 30.46 1031 10 16 0.00 0.00
1:53 am 01:53 Clear 2 -16.7 0 -17.8 91 91 ENE 7 11 30.49 1032 10 16 0.00 0.00
2:53 am 02:53 Clear 3 -16.1 -1 -18.3 83 83 E 7 11 30.51 1033 10 16 0.00 0.00
3:53 am 03:53 Clear 2 -16.7 -1 -18.3 88 88 NE 5 7 30.54 1034 8 13 0.00 0.00
4:53 am 04:53 Clear 5 -15 2 -16.7 87 87 E 10 17 30.55 1034 10 16 0.00 0.00
5:53 am 05:53 Clear 7 -13.9 2 -16.7 80 80 E 8 13 30.57 1035 10 16 0.00 0.00
6:53 am 06:53 Clear 7 -13.9 2 -16.7 80 80 E 10 17 30.57 1035 10 16 0.00 0.00
7:53 am 07:53 Sunny 6 -14.4 2 -16.7 83 83 E 9 15 30.62 1037 10 16 0.00 0.00
8:53 am 08:53 Sunny 6 -14.4 1 -17.2 79 79 ENE 6 9 30.64 1038 10 16 0.00 0.00
9:53 am 09:53 Sunny 8 -13.3 2 -16.7 76 76 E 12 19 30.66 1038 10 16 0.00 0.00
10:53 am 10:53 Sunny 11 -11.7 4 -15.6 73 73 E 10 17 30.65 1038 10 16 0.00 0.00
11:53 am 11:53 Sunny 14 -10 6 -14.4 71 71 E 12 19 30.64 1038 10 16 0.00 0.00
12:53 pm 12:53 Sunny 17 -8.3 8 -13.3 68 68 E 13 20 30.63 1037 10 16 0.00 0.00
1:53 pm 13:53 Sunny 17 -8.3 9 -12.8 70 70 E 14 22 30.59 1036 10 16 0.00 0.00
2:53 pm 14:53 Sunny 17 -8.3 9 -12.8 70 70 E 13 20 30.57 1035 10 16 0.00 0.00
3:53 pm 15:53 Mostly Cloudy 17 -8.3 9 -12.8 70 70 E 13 20 30.55 1035 10 16 0.00 0.00
4:53 pm 16:53 Cloudy 16 -8.9 9 -12.8 74 74 E 15 24 30.53 1034 10 16 0.00 0.00
5:53 pm 17:53 Cloudy 16 -8.9 9 -12.8 74 74 E 14 22 30.53 1034 10 16 0.00 0.00
6:53 pm 18:53 Cloudy 16 -8.9 9 -12.8 74 74 E 15 24 30.52 1034 10 16 0.00 0.00
7:53 pm 19:53 Cloudy 16 -8.9 10 -12.2 77 77 E 13 20 30.53 1034 10 16 0.00 0.03
8:53 pm 20:53 Cloudy 17 -8.3 11 -11.7 77 77 E 10 17 30.53 1034 10 16 0.00 0.00
9:53 pm 21:53 Cloudy 18 -7.8 12 -11.1 77 77 E 10 17 30.53 1034 10 16 0.00 0.00
10:53 pm 22:53 Cloudy 18 -7.8 12 -11.1 77 77 ESE 13 20 30.52 1034 10 16 0.00 0.00
11:53 pm 23:53 Mostly Clear 18 -7.8 12 -11.1 77 77 ESE 14 22 30.51 1033 10 16 0.00 0.00

Powered by AerisWeather